Tracking 18984 objects as of 24-Feb-2018
HD Live streaming from Space Station
objects crossing your sky now

COSMOS 738

Track COSMOS 738 now!
10-day predictions
COSMOS 738 is classified as:


NORAD ID: 7827
Int'l Code: 1975-045G
Perigee: 1,476.4 km
Apogee: 1,515.6 km
Inclination: 74.0 °
Period: 115.7 minutes
Semi major axis: 7866 km
RCS: 0.6927 m2 (medium)
Launch date: May 28, 1975
Source: Commonwealth of Independent States (former USSR) (CIS)
Launch site: PLESETSK MISSILE AND SPACE COMPLEX (PKMTR)
aabbcc
Your satellite tracking list
Your tracking list is empty




NASA's NSSDC Master Catalog

Two Line Element Set (TLE):
1  7827U 75045G   18054.53787074 -.00000007 +00000-0 +63012-4 0  9998
2  7827 074.0142 244.9825 0024890 101.5977 288.3846 12.44198560941431
Source of the keplerian elements: AFSPC